[[{"header":{"parameterUnit":"m.s-1","parameterCategory":2,"la1":30.2991,"la2":30.254,"lo1":-89.0895,"lo2":-89.0444,"dy":0.0017,"dx":0.0017,"nx":28,"ny":28,"refTime":"2025-04-21T09:00:00:Z","depth":"0","parameterNumber":2,"parameterNumberName":"U-component_of_CURRENTS"},"data":[0,0,0,0,0,0,0,0,0,0,0,0,0,0,0,0,0,0,0,0,0,0,0,0,0,0,0,0,0,0,0,0,0,0,0,0,0,0,0,0,0,0,0,0,0,0,0,0,0,0,0,0,0,0,0,0,0,0,0.2851,0.2852,0,0.2819,0.2817,0.2816,0.2711,0.2709,0.2708,0.2707,0.264,0.2639,0.2639,0,0,0,0,0,0,0,0,0,0,0,0,0,0.277,0.2771,0.2851,0.2852,0.2853,0.2819,0.2817,0.2816,0.2711,0.2709,0.2708,0.2706,0.264,0.2639,0.2639,0,0,0,0,0,0,0,0,0,0,0,0,0,0.2767,0.2772,0.2851,0.2805,0.2801,0.2819,0.2817,0.2815,0.2711,0.2709,0.2707,0.2706,0.264,0.264,0.2639,0.2671,0,0,0.2636,0.2635,0,0,0,0,0,0,0,0,0.2768,0.2769,0.2811,0.2808,0.2804,0.2777,0.2765,0.2769,0.2712,0.2733,0.2707,0.2705,0.2692,0.2687,0.2668,0.2668,0.2665,0.2636,0.2635,0.2635,0.2635,0,0,0,0,0,0,0,0.2768,0.277,0.2826,0.2812,0.2808,0.2769,0.2765,0.2764,0.2714,0.2731,0.2726,0.2742,0.2688,0.2669,0.2666,0.2664,0.2636,0.2635,0.2634,0.2634,0.2703,0.2705,0,0,0,0,0,0,0.2801,0.277,0.2828,0.2827,0.2794,0.2773,0.2768,0.2778,0.2714,0.2706,0.2744,0.2737,0.2672,0.2667,0.2663,0.2736,0.2635,0.2634,0.2634,0.2701,0.2704,0.2706,0,0,0,0,0,0,0.2799,0.2806,0.2829,0.2807,0.2809,0.2778,0.2789,0.2779,0.2761,0.2727,0.2715,0.2738,0.267,0.2665,0.2676,0.2731,0.2634,0.2633,0.2698,0.2702,0.2705,0.2857,0,0,0,0,0,0,0.2797,0.2805,0.2825,0.2809,0.2812,0.2869,0.2791,0.278,0.278,0.2771,0.2719,0.271,0.2668,0.2677,0.2675,0.2728,0.2632,0.2695,0.27,0.2704,0.2849,0.2865,0.2879,0,0,0,0,0,0.2794,0.285,0.2826,0.2834,0.2839,0.2873,0.287,0.2832,0.2782,0.2801,0.2755,0.2711,0.2703,0.2679,0.2675,0.2729,0.2693,0.2698,0.2703,0.2842,0.2862,0.2879,0,0,0,0,0,0,0.2836,0.2845,0.2818,0.2874,0.2883,0.286,0.2887,0.2847,0.2822,0.2812,0.2742,0.2733,0.2766,0.2728,0.2702,0.2762,0.2692,0.2697,0.2799,0.2817,0.2832,0.2839,0.2631,0,0,0,0,0,0.2855,0.2887,0.2889,0.2934,0.2946,0.291,0.2917,0.2896,0.2878,0.2862,0.2818,0.2786,0.2788,0.2784,0.2776,0.281,0.2793,0.2842,0.2857,0.287,0.2874,0.2908,0.2927,0.2724,0.2724,0.2723,0,0,0.2886,0.2896,0.2915,0.2944,0.294,0.2966,0.2907,0.2945,0.2947,0.2866,0.2855,0.2844,0.281,0.2847,0.2858,0.282,0.2924,0.2877,0.2889,0.2885,0.2916,0.2936,0.2954,0.2727,0.2727,0.2726,0,0,0.2955,0.2973,0.3008,0.3025,0.3048,0.3036,0.3051,0.3037,0.3014,0.3022,0.2969,0.2994,0.2963,0.2967,0.2961,0.3058,0.3007,0.3051,0.3131,0.3166,0.3183,0.3198,0.3222,0.3237,0.3054,0.3055,0.3055,0,0.2986,0.3024,0.3029,0.3065,0.3088,0.3067,0.3104,0.3095,0.3077,0.3074,0.304,0.304,0.3025,0.3077,0.3111,0.3096,0.3093,0.3066,0.3187,0.3201,0.3214,0.3234,0.3249,0.3063,0.3062,0.3061,0.306,0,0.3054,0.3096,0.3134,0.3153,0.3181,0.3233,0.3226,0.3236,0.3206,0.3185,0.3224,0.3214,0.3211,0.3228,0.3196,0.3286,0.3249,0.3209,0.3143,0.3244,0.3259,0.3272,0.3074,0.3071,0.3069,0.3067,0,0,0.3076,0.3162,0.3166,0.3191,0.3236,0.3262,0.3297,0.3319,0.3327,0.3331,0.3352,0.3389,0.3381,0.3375,0.3363,0.34,0.3506,0.3347,0.3345,0.3375,0.3577,0.3487,0.3492,0.3482,0.3485,0.3487,0.3559,0,0.3115,0.3201,0.3226,0.3298,0.3344,0.3356,0.3383,0.3403,0.34,0.342,0.3442,0.3464,0.3436,0.3455,0.3497,0.35,0.3543,0.3489,0.347,0.3469,0.3381,0.3505,0.3318,0.336,0.3572,0.3574,0.3575,0,0.3142,0.32,0.3287,0.3365,0.3382,0.3416,0.3458,0.3483,0.3518,0.3519,0.3562,0.3558,0.364,0.3588,0.3664,0.3627,0.3619,0.3616,0.3617,0.3484,0.3404,0.3289,0.3375,0.3296,0.3594,0.3593,0.3592,0,0.3131,0.3231,0.3303,0.3333,0.342,0.3447,0.3476,0.3511,0.3527,0.3588,0.3612,0.3681,0.3715,0.3743,0.3743,0.371,0.3805,0.3752,0.3666,0.3659,0.3469,0.344,0.3473,0.3805,0.3805,0.3804,0.3804,0,0.3157,0.3207,0.3304,0.3347,0.34,0.3458,0.3502,0.3531,0.3588,0.3618,0.3665,0.3706,0.3752,0.3797,0.3793,0.3781,0.3849,0.3708,0.3684,0.3518,0.3494,0.3386,0.3353,0.3807,0.3807,0.3806,0.3806,0,0.3128,0.3207,0.3284,0.3383,0.3404,0.3434,0.3497,0.352,0.3589,0.3638,0.3666,0.3744,0.381,0.3844,0.3892,0.3826,0.372,0.3803,0.3602,0.3553,0.3365,0.3347,0.3234,0.3144,0.3725,0.3723,0.3722,0,0.3122,0.3168,0.3279,0.33,0.3342,0.3393,0.3415,0.3498,0.3527,0.3646,0.3668,0.3764,0.3793,0.3844,0.3776,0.3765,0.3675,0.3556,0.3456,0.3359,0.3323,0.3218,0.3143,0.3278,0.3273,0.3269,0.3266,0,0.3086,0.3131,0.319,0.3237,0.3273,0.3309,0.336,0.3391,0.3492,0.3541,0.3608,0.3654,0.3702,0.3598,0.358,0.3542,0.3374,0.347,0.3423,0.3031,0.2864,0.2762,0.3234,0.323,0.3234,0.3236,0.3238,0.324,0.3025,0.3047,0.3113,0.3142,0.3175,0.3192,0.3173,0.3247,0.3286,0.3307,0.346,0.3427,0.3415,0.3359,0.3314,0.3093,0.3133,0.2954,0.2961,0.2882,0.2723,0.3119,0.3049,0.3052,0.3054,0.3056,0.3057,0,0.2907,0.2952,0.2993,0.302,0.2986,0.3051,0.309,0.3042,0.3031,0.3095,0.3118,0.3048,0.2945,0.2912,0.274,0.2599,0.2479,0.2528,0.2347,0.2317,0.2712,0.2621,0.2387,0.2388,0.2388,0.2388,0.2388,0.2388,0.2839,0.2841,0.2878,0.2807,0.2808,0.2719,0.2706,0.268,0.2688,0.2594,0.2517,0.2551,0.2622,0.2534,0.2347,0.2276,0.2129,0.1991,0.2059,0.2349,0.2389,0.2428,0.2336,0.2047,0.2046,0.1526,0.1522,0.152]},{"header":{"parameterUnit":"m.s-1","parameterCategory":2,"la1":30.2991,"la2":30.254,"lo1":-89.0895,"lo2":-89.0444,"dy":0.0017,"dx":0.0017,"nx":28,"ny":28,"refTime":"2025-04-21T09:00:00:Z","depth":"0","parameterNumber":3,"parameterNumberName":"V-component_of_CURRENTS"},"data":[0,0,0,0,0,0,0,0,0,0,0,0,0,0,0,0,0,0,0,0,0,0,0,0,0,0,0,0,0,0,0,0,0,0,0,0,0,0,0,0,0,0,0,0,0,0,0,0,0,0,0,0,0,0,0,0,0,0,0.024,0.024,0,0.0227,0.0227,0.0226,0.0225,0.0225,0.0225,0.0225,0.021,0.0209,0.0209,0,0,0,0,0,0,0,0,0,0,0,0,0,0.0198,0.0199,0.024,0.024,0.0239,0.0227,0.0227,0.0226,0.0225,0.0225,0.0225,0.0225,0.021,0.0209,0.0209,0,0,0,0,0,0,0,0,0,0,0,0,0,0.0203,0.0199,0.024,0.0237,0.0237,0.0227,0.0227,0.0226,0.0225,0.0225,0.0225,0.0225,0.021,0.0209,0.0209,0.0199,0,0,0.0206,0.0206,0,0,0,0,0,0,0,0,0.0203,0.0205,0.0238,0.0237,0.0237,0.0228,0.0206,0.0217,0.0225,0.0229,0.0225,0.0225,0.0216,0.0214,0.0211,0.0198,0.0198,0.0206,0.0206,0.0205,0.0205,0,0,0,0,0,0,0,0.0203,0.0205,0.0234,0.0238,0.0237,0.0215,0.0216,0.0208,0.0221,0.0229,0.0228,0.0228,0.0216,0.0212,0.0211,0.0197,0.0206,0.0205,0.0205,0.0205,0.0195,0.0195,0,0,0,0,0,0,0.0209,0.0205,0.0235,0.0234,0.0221,0.0215,0.0217,0.023,0.0221,0.022,0.0227,0.0228,0.0213,0.0212,0.021,0.0244,0.0205,0.0204,0.0204,0.0195,0.0195,0.0196,0,0,0,0,0,0,0.0208,0.0212,0.0235,0.0218,0.022,0.0217,0.0231,0.023,0.0227,0.022,0.0219,0.0226,0.0213,0.0211,0.0209,0.0242,0.0204,0.0203,0.0195,0.0195,0.0195,0.0283,0,0,0,0,0,0,0.0207,0.0212,0.0223,0.0219,0.0221,0.0233,0.0231,0.023,0.0226,0.0227,0.0218,0.0217,0.0213,0.0211,0.0208,0.024,0.0203,0.0194,0.0195,0.0195,0.028,0.0286,0.0292,0,0,0,0,0,0.0206,0.0225,0.0224,0.0227,0.0237,0.0233,0.0232,0.0229,0.0226,0.0227,0.0224,0.0217,0.0212,0.021,0.0208,0.024,0.0194,0.0195,0.0195,0.0277,0.0285,0.0292,0,0,0,0,0,0,0.0208,0.0226,0.0225,0.0248,0.0241,0.0233,0.0236,0.0228,0.0225,0.0227,0.0219,0.0217,0.0228,0.0211,0.0209,0.0235,0.0203,0.0203,0.0266,0.0273,0.0279,0.0321,0.0202,0,0,0,0,0,0.0214,0.0237,0.0236,0.0251,0.0251,0.0241,0.0239,0.0234,0.023,0.0229,0.0223,0.0219,0.0227,0.0232,0.0224,0.0237,0.0219,0.0253,0.026,0.0265,0.0295,0.029,0.0299,0.0197,0.0197,0.0197,0,0,0.0217,0.023,0.0241,0.0252,0.0249,0.0264,0.0241,0.0239,0.026,0.0227,0.025,0.0235,0.0231,0.0252,0.0255,0.0245,0.0277,0.0266,0.0271,0.0298,0.0291,0.0302,0.0311,0.0198,0.0198,0.0198,0,0,0.0227,0.0246,0.0263,0.0269,0.0268,0.0272,0.0273,0.0265,0.0272,0.0282,0.0273,0.0283,0.0276,0.0298,0.0306,0.0337,0.0304,0.032,0.0398,0.0392,0.0401,0.0409,0.0376,0.0381,0.0331,0.0332,0.0332,0,0.0223,0.026,0.0262,0.028,0.03,0.0282,0.0306,0.0312,0.0305,0.0327,0.0299,0.0326,0.0312,0.0374,0.0386,0.0358,0.0331,0.0376,0.0404,0.0411,0.0418,0.0382,0.0386,0.0336,0.0335,0.0335,0.0335,0,0.0245,0.028,0.0291,0.0325,0.0341,0.0357,0.0373,0.0388,0.0392,0.0402,0.0442,0.0426,0.045,0.0442,0.0429,0.048,0.0435,0.0407,0.0394,0.0434,0.0392,0.0395,0.0342,0.0341,0.0339,0.0338,0,0,0.0222,0.0295,0.0299,0.0338,0.0374,0.0391,0.0441,0.0488,0.0533,0.0528,0.0591,0.0604,0.0591,0.0599,0.0578,0.0582,0.0591,0.0522,0.052,0.0505,0.0555,0.0508,0.0505,0.0563,0.0565,0.0566,0.0499,0,0.0237,0.03,0.0334,0.0404,0.0444,0.0476,0.0531,0.0572,0.0598,0.0647,0.0661,0.0694,0.0652,0.0661,0.0666,0.0616,0.0605,0.0611,0.0506,0.0503,0.047,0.0511,0.0515,0.0456,0.0501,0.0501,0.0502,0,0.0247,0.0298,0.037,0.0476,0.0496,0.0535,0.0636,0.0679,0.0751,0.077,0.0816,0.0811,0.0848,0.0782,0.0748,0.0748,0.0666,0.0614,0.0609,0.0547,0.0463,0.0425,0.0458,0.0358,0.0505,0.0505,0.0505,0,0.0244,0.033,0.04,0.0432,0.0533,0.0582,0.0637,0.0715,0.0772,0.0846,0.0884,0.0917,0.0925,0.0867,0.0775,0.0754,0.0709,0.0658,0.0538,0.0531,0.051,0.05,0.0455,0.062,0.0621,0.0621,0.0621,0,0.0266,0.0323,0.0404,0.0446,0.0532,0.0597,0.0693,0.0748,0.0839,0.0927,0.0942,0.1008,0.0944,0.0915,0.0815,0.0699,0.0735,0.0572,0.0527,0.0534,0.0528,0.0418,0.0343,0.0618,0.0619,0.0619,0.062,0,0.0265,0.0318,0.0398,0.0501,0.0534,0.0593,0.0719,0.0796,0.0867,0.0982,0.101,0.1068,0.1046,0.096,0.0858,0.0739,0.0562,0.0569,0.0572,0.053,0.0319,0.0249,0.0144,0.0088,0.0432,0.0431,0.043,0,0.0288,0.032,0.0416,0.0463,0.0513,0.0608,0.0686,0.0791,0.0881,0.1031,0.1095,0.1115,0.117,0.1007,0.0818,0.0639,0.0522,0.0473,0.0444,0.0332,0.022,0.0174,0.0132,0.0431,0.043,0.0429,0.0428,0,0.0314,0.0326,0.0384,0.0474,0.0554,0.066,0.0781,0.0856,0.1004,0.1116,0.1269,0.1329,0.1196,0.1052,0.0782,0.0648,0.0397,0.0447,0.0347,0.0242,0.0175,0.0092,0.0425,0.0421,0.0422,0.0422,0.0423,0.0423,0.0322,0.0345,0.0407,0.0497,0.0592,0.0727,0.0824,0.0972,0.1138,0.1346,0.1389,0.151,0.1261,0.0928,0.0723,0.0333,0.0325,0.0208,0.0135,0.0102,0.0049,0.0355,0.029,0.029,0.029,0.029,0.029,0,0.0345,0.0371,0.0444,0.0565,0.0679,0.0727,0.0908,0.1031,0.1242,0.1433,0.1587,0.1543,0.1224,0.0881,0.0351,0.008,-0.0003,-0.0063,-0.0109,-0.0135,0.0158,0.0161,0.0048,0.0048,0.0048,0.0048,0.0048,0.0048,0.0361,0.0412,0.0448,0.0627,0.0717,0.0883,0.0987,0.1171,0.1336,0.1577,0.1673,0.1732,0.1463,0.0554,-0.0033,-0.0165,-0.0337,-0.0396,-0.0482,-0.0266,-0.0245,-0.0225,-0.0237,-0.0431,-0.0432,-0.0719,-0.0723,-0.0725]}],[{"header":{"parameterUnit":"m.s-1","parameterCategory":2,"la1":30.2991,"la2":30.254,"lo1":-89.0895,"lo2":-89.0444,"dy":0.0017,"dx":0.0017,"nx":28,"ny":28,"refTime":"2025-04-21T09:00:00:Z","depth":"2","parameterNumber":2,"parameterNumberName":"U-component_of_CURRENTS"},"data":[0,0,0,0,0,0,0,0,0,0,0,0,0,0,0,0,0,0,0,0,0,0,0,0,0,0,0,0,0,0,0,0,0,0,0,0,0,0,0,0,0,0,0,0,0,0,0,0,0,0,0,0,0,0,0,0,0,0,0.2213,0.2213,0,0.2195,0.2194,0.2193,0.2144,0.2144,0.2144,0.2143,0.2147,0.2147,0.2148,0,0,0,0,0,0,0,0,0,0,0,0,0,0.2173,0.2173,0.2212,0.2213,0.2214,0.2195,0.2194,0.2193,0.2144,0.2144,0.2144,0.2143,0.2147,0.2147,0.2148,0,0,0,0,0,0,0,0,0,0,0,0,0,0.2168,0.2173,0.2212,0.2194,0.2193,0.2195,0.2194,0.2192,0.2144,0.2144,0.2144,0.2143,0.2147,0.2147,0.2148,0.2157,0,0,0.2149,0.2149,0,0,0,0,0,0,0,0,0.2168,0.2168,0.2196,0.2195,0.2194,0.2179,0.2182,0.2185,0.2144,0.2153,0.2143,0.2143,0.2166,0.2165,0.2149,0.2157,0.2157,0.2149,0.2149,0.215,0.215,0,0,0,0,0,0,0,0.2168,0.2168,0.2196,0.2197,0.2196,0.2177,0.2175,0.2181,0.2155,0.2152,0.2151,0.2164,0.2164,0.2149,0.2149,0.2157,0.2149,0.215,0.215,0.215,0.2231,0.2233,0,0,0,0,0,0,0.2191,0.2169,0.2197,0.2197,0.219,0.2178,0.2176,0.2177,0.2154,0.2153,0.2164,0.2162,0.2148,0.2148,0.2149,0.2229,0.215,0.215,0.215,0.2229,0.2232,0.2234,0,0,0,0,0,0,0.219,0.2193,0.2198,0.219,0.2191,0.2181,0.2182,0.2177,0.2168,0.2165,0.2162,0.2162,0.2148,0.2148,0.218,0.2227,0.215,0.2151,0.2227,0.223,0.2233,0.2345,0,0,0,0,0,0,0.2189,0.2192,0.2206,0.2192,0.2192,0.2201,0.2183,0.2177,0.218,0.2177,0.2162,0.2161,0.2147,0.218,0.218,0.2226,0.2151,0.2225,0.2228,0.2232,0.2339,0.2352,0.2362,0,0,0,0,0,0.2187,0.2224,0.2206,0.2211,0.2209,0.2203,0.22,0.2186,0.2181,0.2175,0.2186,0.2162,0.2202,0.2182,0.2182,0.2229,0.2223,0.2227,0.2231,0.2334,0.2349,0.2362,0,0,0,0,0,0,0.2238,0.2223,0.2203,0.2238,0.2218,0.2198,0.2218,0.2194,0.2193,0.2204,0.2187,0.2187,0.2235,0.2214,0.2191,0.2262,0.2209,0.2213,0.2286,0.23,0.2312,0.2345,0.2151,0,0,0,0,0,0.225,0.2254,0.2236,0.226,0.2262,0.2235,0.2236,0.2217,0.2218,0.2215,0.2222,0.2232,0.2251,0.226,0.2272,0.2308,0.2299,0.2337,0.2348,0.2358,0.2386,0.2402,0.2418,0.2247,0.2247,0.2247,0,0,0.2278,0.2272,0.2276,0.2268,0.2261,0.2272,0.2233,0.2243,0.2265,0.2221,0.2279,0.2277,0.2271,0.2319,0.2337,0.2307,0.2404,0.2364,0.2372,0.2395,0.2409,0.2425,0.244,0.225,0.225,0.2249,0,0,0.2327,0.2331,0.234,0.234,0.2334,0.2314,0.2319,0.231,0.2322,0.236,0.2349,0.238,0.2402,0.2416,0.2421,0.2502,0.2467,0.2498,0.2583,0.2598,0.2613,0.2625,0.2642,0.2655,0.2499,0.25,0.25,0,0.2362,0.2359,0.2344,0.2367,0.2375,0.2339,0.2352,0.2372,0.2378,0.2394,0.2398,0.2451,0.2456,0.2507,0.2552,0.2532,0.253,0.253,0.2615,0.2627,0.2638,0.2651,0.2664,0.2505,0.2505,0.2504,0.2504,0,0.24,0.2413,0.2435,0.2432,0.2444,0.2452,0.2472,0.25,0.2513,0.2511,0.2575,0.2595,0.2615,0.2631,0.263,0.2708,0.2679,0.263,0.2581,0.2662,0.2671,0.2682,0.2514,0.2512,0.251,0.2509,0,0,0.2415,0.2444,0.2449,0.2465,0.2471,0.2489,0.2551,0.2563,0.2606,0.2644,0.2699,0.2764,0.2757,0.2767,0.2762,0.2804,0.2897,0.277,0.2768,0.2791,0.2939,0.285,0.2853,0.2859,0.2861,0.2863,0.2916,0,0.2425,0.247,0.2475,0.2526,0.2545,0.2561,0.2616,0.2646,0.2674,0.2736,0.2769,0.2821,0.281,0.2838,0.2879,0.2896,0.2932,0.2888,0.2854,0.2854,0.2768,0.2865,0.2639,0.2661,0.2927,0.2929,0.293,0,0.2438,0.2456,0.2506,0.2558,0.2571,0.2607,0.2671,0.2714,0.2782,0.2822,0.287,0.2883,0.2974,0.2949,0.3023,0.2993,0.2991,0.2998,0.2998,0.2887,0.2786,0.2622,0.2671,0.2949,0.2947,0.2946,0.2945,0,0.2433,0.2482,0.2517,0.2542,0.2602,0.2642,0.2662,0.2724,0.2782,0.2874,0.2922,0.2986,0.3043,0.3066,0.3095,0.3064,0.3166,0.3097,0.3009,0.3001,0.2791,0.276,0.3145,0.3145,0.3145,0.3145,0.3145,0,0.2438,0.2483,0.2527,0.256,0.2615,0.2652,0.2727,0.2772,0.2849,0.2903,0.2958,0.3019,0.3081,0.3129,0.3133,0.3123,0.3181,0.3061,0.3021,0.2823,0.2796,0.3021,0.3006,0.3147,0.3146,0.3146,0.3146,0,0.2477,0.2493,0.2553,0.2604,0.2624,0.2677,0.2763,0.2806,0.2883,0.2965,0.3002,0.3082,0.3128,0.3167,0.3216,0.3159,0.3163,0.3133,0.2907,0.284,0.2977,0.2967,0.304,0.3038,0.3035,0.3034,0.3032,0,0.2514,0.253,0.2597,0.2615,0.2647,0.272,0.2746,0.2824,0.2847,0.298,0.2988,0.3087,0.3091,0.3138,0.3092,0.3072,0.3131,0.283,0.2727,0.3019,0.2973,0.2966,0.296,0.2496,0.249,0.2485,0.2482,0,0.2528,0.2551,0.2587,0.2629,0.266,0.2718,0.274,0.2767,0.2836,0.2893,0.2919,0.2947,0.2988,0.2851,0.2844,0.2796,0.2818,0.2731,0.3105,0.2554,0.2509,0.2462,0.2473,0.244,0.2444,0.2447,0.2449,0.2451,0.2525,0.2555,0.256,0.2613,0.2635,0.263,0.2607,0.2624,0.2635,0.2597,0.272,0.2656,0.2675,0.2519,0.2445,0.2401,0.258,0.2446,0.2459,0.2478,0.2402,0.2355,0.2244,0.2247,0.2249,0.2251,0.2253,0,0.2469,0.2496,0.2521,0.2519,0.2472,0.2551,0.2523,0.2432,0.2345,0.2379,0.2346,0.2131,0.2046,0.2091,0.196,0.1946,0.1917,0.186,0.1807,0.1851,0.189,0.1782,0.146,0.1457,0.1455,0.1452,0,0,0.2419,0.2394,0.2404,0.2299,0.2318,0.2198,0.215,0.2054,0.201,0.1875,0.1822,0.19,0.2019,0.1698,0.1666,0.1546,0.1679,0.1481,0.2125,0.2107,0.2142,0.2243,0.2129,0,0,0,0,0]},{"header":{"parameterUnit":"m.s-1","parameterCategory":2,"la1":30.2991,"la2":30.254,"lo1":-89.0895,"lo2":-89.0444,"dy":0.0017,"dx":0.0017,"nx":28,"ny":28,"refTime":"2025-04-21T09:00:00:Z","depth":"2","parameterNumber":3,"parameterNumberName":"V-component_of_CURRENTS"},"data":[0,0,0,0,0,0,0,0,0,0,0,0,0,0,0,0,0,0,0,0,0,0,0,0,0,0,0,0,0,0,0,0,0,0,0,0,0,0,0,0,0,0,0,0,0,0,0,0,0,0,0,0,0,0,0,0,0,0,-0.0027,-0.0026,0,-0.0001,-0.0001,-0.0,0.0015,0.0015,0.0015,0.0015,0.0022,0.0023,0.0023,0,0,0,0,0,0,0,0,0,0,0,0,0,-0.0061,-0.0061,-0.0027,-0.0026,-0.0026,-0.0001,-0.0001,-0.0,0.0015,0.0015,0.0015,0.0015,0.0022,0.0023,0.0023,0,0,0,0,0,0,0,0,0,0,0,0,0,-0.004,-0.006,-0.0027,-0.0017,-0.0016,-0.0001,-0.0001,-0.0,0.0015,0.0015,0.0015,0.0014,0.0022,0.0023,0.0023,0.003,0,0,0.0025,0.0025,0,0,0,0,0,0,0,0,-0.0041,-0.0039,-0.0019,-0.0018,-0.0017,0.0002,-0.001,0.0008,0.0015,0.0005,0.0015,0.0014,0.0013,0.0014,0.0022,0.003,0.0031,0.0025,0.0025,0.0025,0.0025,0,0,0,0,0,0,0,-0.0043,-0.004,-0.0014,-0.0019,-0.0018,-0.0015,-0.0011,-0.0006,0.0011,0.0006,0.0007,0.0006,0.0013,0.0022,0.0023,0.0031,0.0025,0.0025,0.0025,0.0026,0.0051,0.0051,0,0,0,0,0,0,-0.005,-0.0041,-0.0015,-0.0014,-0.0032,-0.0014,-0.001,-0.0002,0.0011,0.0013,0.0006,0.0007,0.0021,0.0022,0.0023,0.0045,0.0025,0.0026,0.0026,0.005,0.0051,0.0051,0,0,0,0,0,0,-0.0051,-0.0048,-0.0016,-0.0029,-0.0025,-0.0013,-0.0004,-0.0002,0.0005,0.0011,0.0013,0.001,0.0021,0.0022,0.0035,0.0044,0.0026,0.0026,0.005,0.005,0.0051,0.0079,0,0,0,0,0,0,-0.0052,-0.0048,-0.0042,-0.0029,-0.0025,-0.0006,-0.0004,-0.0001,0.0004,0.0005,0.0015,0.0016,0.0021,0.0034,0.0036,0.0045,0.0027,0.0049,0.005,0.0051,0.0078,0.0081,0.0083,0,0,0,0,0,-0.0053,-0.0043,-0.0041,-0.0038,-0.0017,-0.0006,-0.0002,0.0006,0.0005,0.0012,0.0021,0.0016,0.0039,0.0035,0.0037,0.0046,0.0049,0.005,0.0051,0.0077,0.008,0.0083,0,0,0,0,0,0,-0.0056,-0.0041,-0.0038,-0.0025,-0.0017,-0.0004,-0.0,0.0005,0.0019,0.0016,0.0024,0.0026,0.004,0.0038,0.0033,0.0054,0.0041,0.0043,0.0061,0.0064,0.0067,0.0091,0.0027,0,0,0,0,0,-0.0055,-0.0041,-0.0032,-0.0021,-0.0021,-0.0011,-0.0006,-0.0001,0.0009,0.0015,0.0028,0.0035,0.0045,0.005,0.0058,0.007,0.0061,0.0075,0.0078,0.008,0.0101,0.0093,0.0097,0.0054,0.0054,0.0054,0,0,-0.0052,-0.0043,-0.0035,-0.0021,-0.0017,0.0,-0.0008,-0.0003,0.0025,0.0013,0.0052,0.0045,0.005,0.0069,0.0074,0.0068,0.0083,0.0081,0.0083,0.0103,0.0094,0.0099,0.0102,0.0054,0.0054,0.0054,0,0,-0.0043,-0.0037,-0.0025,-0.0018,-0.0014,0.0001,0.0001,0.0015,0.0034,0.0062,0.006,0.0063,0.0084,0.0092,0.0097,0.0117,0.0097,0.011,0.0146,0.0138,0.0142,0.0145,0.012,0.0121,0.0112,0.0112,0.0112,0,-0.0043,-0.0018,-0.002,-0.0011,0.0003,0.0003,0.0022,0.0044,0.0068,0.0089,0.0078,0.0107,0.0101,0.0129,0.0136,0.0125,0.0111,0.0134,0.0142,0.0145,0.0148,0.0122,0.0123,0.0114,0.0113,0.0113,0.0113,0,-0.0025,-0.0004,-0.0001,0.0024,0.0035,0.005,0.0072,0.0102,0.012,0.0137,0.0167,0.0159,0.0178,0.0167,0.0161,0.0179,0.0158,0.0145,0.0135,0.0155,0.0125,0.0125,0.0116,0.0115,0.0115,0.0114,0,0,-0.0018,0.0011,0.0014,0.0038,0.0056,0.0074,0.0122,0.017,0.0216,0.022,0.0271,0.0267,0.025,0.0255,0.0235,0.0227,0.0219,0.0199,0.0197,0.0177,0.0189,0.0159,0.0156,0.0205,0.0206,0.0206,0.0153,0,0.0004,0.0041,0.0049,0.0099,0.0124,0.0145,0.0199,0.0236,0.0271,0.0321,0.0305,0.0335,0.0288,0.0294,0.0277,0.0247,0.0224,0.0234,0.0173,0.0171,0.0145,0.0158,0.0173,0.0126,0.0153,0.0153,0.0153,0,0.0023,0.0053,0.0096,0.0162,0.0174,0.0203,0.0291,0.0335,0.0392,0.0419,0.0429,0.042,0.0417,0.037,0.0317,0.0325,0.0262,0.0224,0.0221,0.0191,0.0143,0.0115,0.0125,0.0153,0.0153,0.0153,0.0153,0,0.0045,0.0093,0.0136,0.015,0.0215,0.0251,0.0294,0.0358,0.0423,0.0474,0.0522,0.0499,0.0505,0.0435,0.0353,0.0337,0.0289,0.0252,0.016,0.0155,0.0158,0.0154,0.0206,0.0206,0.0206,0.0207,0.0207,0,0.0078,0.0116,0.0149,0.0176,0.0245,0.0271,0.0356,0.0409,0.0489,0.058,0.0561,0.0623,0.0525,0.0488,0.0387,0.0282,0.0308,0.0177,0.0149,0.0165,0.0162,0.0183,0.0181,0.0205,0.0205,0.0205,0.0206,0,0.01,0.012,0.0169,0.023,0.0254,0.0296,0.0396,0.0475,0.0541,0.0662,0.0686,0.0715,0.0672,0.0561,0.0451,0.0336,0.0233,0.0181,0.0198,0.0173,0.0089,0.0089,0.0072,0.007,0.0069,0.0068,0.0068,0,0.0128,0.0148,0.0195,0.0227,0.0254,0.0323,0.0398,0.0489,0.0595,0.0732,0.0812,0.0801,0.0824,0.0638,0.0443,0.0255,0.0229,0.0123,0.0093,0.0106,0.0079,0.0081,0.0083,0.0095,0.0095,0.0095,0.0094,0,0.0174,0.0164,0.0193,0.026,0.0323,0.0422,0.054,0.0634,0.0776,0.0884,0.1023,0.1039,0.0873,0.0695,0.0422,0.0289,0.0154,0.0107,0.0135,0.0127,0.0124,0.0099,0.0101,0.0091,0.0091,0.0091,0.0092,0.0092,0.0193,0.0197,0.0226,0.0298,0.039,0.0545,0.0636,0.0787,0.0959,0.1134,0.1144,0.1161,0.095,0.0603,0.0376,0.0124,0.0136,0.0033,0.0037,0.004,0.0052,0.0047,0.0001,0.0001,0.0001,0.0001,0.0001,0,0.0214,0.022,0.0283,0.038,0.0515,0.0555,0.0762,0.0868,0.1072,0.1188,0.1272,0.1076,0.0878,0.063,0.0262,0.004,0.0027,-0.0039,-0.0001,0.0004,0.0008,0.002,-0.004,-0.0041,-0.0042,-0.0043,0,0,0.0218,0.0258,0.0295,0.0496,0.0577,0.0754,0.0871,0.1016,0.1133,0.1238,0.1243,0.1217,0.0944,0.0664,0.0377,0.0169,0.013,0.0119,0.0176,0.026,0.0267,0.0075,0.0102,0,0,0,0,0]}],[{"header":{"parameterUnit":"m.s-1","parameterCategory":2,"la1":30.2991,"la2":30.254,"lo1":-89.0895,"lo2":-89.0444,"dy":0.0017,"dx":0.0017,"nx":28,"ny":28,"refTime":"2025-04-21T09:00:00:Z","depth":"4","parameterNumber":2,"parameterNumberName":"U-component_of_CURRENTS"},"data":[0,0,0,0,0,0,0,0,0,0,0,0,0,0,0,0,0,0,0,0,0,0,0,0,0,0,0,0,0,0,0,0,0,0,0,0,0,0,0,0,0,0,0,0,0,0,0,0,0,0,0,0,0,0,0,0,0,0,0.103,0.1031,0,0.1091,0.1092,0.1093,0.1156,0.1157,0.1158,0.1159,0.1263,0.1265,0.1267,0,0,0,0,0,0,0,0,0,0,0,0,0,0.1003,0.1003,0.103,0.1031,0.1031,0.1091,0.1092,0.1093,0.1156,0.1157,0.1158,0.1159,0.1262,0.1265,0.1267,0,0,0,0,0,0,0,0,0,0,0,0,0,0.1035,0.1003,0.103,0.1069,0.1073,0.1091,0.1092,0.1093,0.1156,0.1157,0.1158,0.1159,0.1262,0.1265,0.1268,0.1263,0,0,0.1277,0.1278,0,0,0,0,0,0,0,0,0.1034,0.1037,0.1063,0.1067,0.1071,0.1116,0.1121,0.1152,0.1156,0.1126,0.1159,0.116,0.1216,0.1223,0.1233,0.1268,0.1272,0.1277,0.1279,0.128,0.1281,0,0,0,0,0,0,0,0.1031,0.1034,0.1055,0.1063,0.1069,0.1096,0.1102,0.1127,0.1165,0.1128,0.1133,0.1138,0.1219,0.123,0.1236,0.1274,0.1277,0.128,0.1282,0.1283,0.1416,0.1418,0,0,0,0,0,0,0.1018,0.1032,0.1053,0.1057,0.1054,0.1095,0.1102,0.1101,0.1164,0.1174,0.1137,0.114,0.1224,0.1232,0.124,0.1322,0.128,0.1283,0.1285,0.1415,0.1417,0.1419,0,0,0,0,0,0,0.1017,0.1019,0.1051,0.1046,0.1051,0.1094,0.1094,0.1102,0.1133,0.117,0.1181,0.1161,0.1225,0.1236,0.1287,0.1324,0.1285,0.1287,0.1413,0.1415,0.1418,0.1433,0,0,0,0,0,0,0.1016,0.1018,0.1028,0.1044,0.1051,0.1066,0.1093,0.1102,0.1132,0.1138,0.1194,0.1203,0.1227,0.1282,0.129,0.1327,0.129,0.1411,0.1414,0.1417,0.143,0.1436,0.144,0,0,0,0,0,0.1015,0.1016,0.1028,0.1032,0.1058,0.1065,0.1072,0.1107,0.1132,0.1141,0.1191,0.1203,0.1309,0.1286,0.1295,0.1333,0.1409,0.1413,0.1417,0.1428,0.1435,0.144,0,0,0,0,0,0,0.1017,0.1023,0.1037,0.1043,0.1056,0.1076,0.109,0.1113,0.1158,0.1173,0.1215,0.1228,0.1292,0.1307,0.1281,0.1384,0.1365,0.1371,0.1371,0.1377,0.1382,0.1386,0.1292,0,0,0,0,0,0.1018,0.1023,0.103,0.1042,0.1041,0.1068,0.1083,0.1103,0.1136,0.1158,0.1212,0.1265,0.131,0.1338,0.138,0.1424,0.1441,0.1459,0.1464,0.1468,0.1479,0.1538,0.1549,0.1431,0.1431,0.1431,0,0,0.1023,0.103,0.1034,0.1043,0.1056,0.1065,0.1081,0.1097,0.1133,0.1161,0.1244,0.1283,0.1326,0.1387,0.1417,0.1406,0.1508,0.1473,0.1476,0.1485,0.1543,0.1554,0.1564,0.1434,0.1433,0.1433,0,0,0.1023,0.1037,0.1032,0.1033,0.1047,0.1073,0.1078,0.1113,0.1156,0.1218,0.1259,0.1317,0.1393,0.1434,0.1459,0.1514,0.1533,0.1537,0.1565,0.1622,0.1632,0.164,0.1659,0.1669,0.1539,0.1539,0.1539,0,0.1038,0.1028,0.1035,0.1025,0.1038,0.1076,0.1079,0.1123,0.1188,0.1237,0.1251,0.1385,0.1416,0.1488,0.1516,0.1525,0.1552,0.1533,0.1627,0.1636,0.1645,0.1662,0.1673,0.154,0.154,0.154,0.1539,0,0.1013,0.1018,0.1014,0.1025,0.1042,0.1049,0.1095,0.1157,0.1225,0.1278,0.1379,0.1425,0.1507,0.1527,0.1541,0.1626,0.1621,0.1624,0.1606,0.1658,0.1672,0.1684,0.1542,0.1541,0.1541,0.154,0,0,0.1024,0.1004,0.101,0.1009,0.1041,0.1052,0.1129,0.1207,0.1277,0.1356,0.1444,0.1525,0.1565,0.1596,0.1622,0.1669,0.1744,0.1681,0.1683,0.1688,0.1856,0.1735,0.1736,0.1772,0.1775,0.1777,0.1833,0,0.1015,0.0996,0.1002,0.102,0.1009,0.1071,0.1139,0.1221,0.1319,0.1421,0.1487,0.1582,0.1585,0.1635,0.168,0.1737,0.178,0.1728,0.1815,0.1817,0.1695,0.1747,0.1785,0.1841,0.1844,0.1846,0.1847,0,0.0985,0.0982,0.0982,0.101,0.1015,0.1059,0.1185,0.1241,0.1386,0.1465,0.1565,0.1631,0.1723,0.1716,0.1826,0.1798,0.1837,0.1865,0.1868,0.176,0.1718,0.1786,0.1868,0.1867,0.1865,0.1864,0.1862,0,0.0963,0.0971,0.0983,0.0982,0.1026,0.1083,0.1141,0.1274,0.1342,0.151,0.1591,0.1696,0.177,0.1835,0.1903,0.1886,0.2007,0.1985,0.1904,0.1894,0.1977,0.1968,0.2069,0.2069,0.2069,0.2069,0.2069,0,0.0928,0.0936,0.0984,0.0972,0.1026,0.1068,0.1163,0.1251,0.1381,0.1463,0.1609,0.1691,0.1815,0.1898,0.193,0.1946,0.2033,0.1918,0.1911,0.1979,0.1969,0.1984,0.1973,0.2071,0.207,0.207,0.207,0,0.0876,0.0903,0.0899,0.0961,0.1,0.1035,0.115,0.1218,0.1361,0.1475,0.1537,0.1717,0.1829,0.1916,0.2026,0.1977,0.2008,0.1997,0.2055,0.2049,0.1844,0.1834,0.1895,0.1892,0.1889,0.1886,0.1884,0,0.0832,0.083,0.0876,0.0899,0.0935,0.1011,0.1071,0.1202,0.1271,0.1474,0.1514,0.1692,0.1797,0.184,0.194,0.1984,0.1974,0.1963,0.1906,0.1844,0.1832,0.1827,0.1821,0.1879,0.1878,0.1878,0.1877,0,0.0748,0.078,0.0774,0.0825,0.0889,0.0938,0.1033,0.1075,0.1228,0.1369,0.1479,0.157,0.1686,0.1768,0.1829,0.1856,0.195,0.1931,0.1937,0.1883,0.1826,0.1815,0.1813,0.1866,0.1868,0.1869,0.1869,0,0.0697,0.0667,0.0686,0.0737,0.0815,0.0865,0.0911,0.1001,0.108,0.1298,0.1327,0.1515,0.1657,0.1704,0.1754,0.1777,0.1749,0.1685,0.1703,0.1716,0.1635,0.1535,0.1489,0,0,0,0,0,0.0639,0.0601,0.0612,0.0652,0.0739,0.0798,0.0894,0.0949,0.1104,0.114,0.1228,0.1335,0.1447,0.1544,0.1535,0.1677,0.175,0.1657,0.1682,0.1808,0.182,0.1744,0,0,0,0,0,0,0.0597,0.0575,0.0564,0.0608,0.065,0.073,0.0794,0.0881,0.0902,0.1064,0.1132,0.1256,0.1382,0.145,0.1516,0.1542,0.1528,0.1764,0.1761,0.1801,0.1812,0.1822,0.1748,0,0,0,0,0]},{"header":{"parameterUnit":"m.s-1","parameterCategory":2,"la1":30.2991,"la2":30.254,"lo1":-89.0895,"lo2":-89.0444,"dy":0.0017,"dx":0.0017,"nx":28,"ny":28,"refTime":"2025-04-21T09:00:00:Z","depth":"4","parameterNumber":3,"parameterNumberName":"V-component_of_CURRENTS"},"data":[0,0,0,0,0,0,0,0,0,0,0,0,0,0,0,0,0,0,0,0,0,0,0,0,0,0,0,0,0,0,0,0,0,0,0,0,0,0,0,0,0,0,0,0,0,0,0,0,0,0,0,0,0,0,0,0,0,0,0.0064,0.0064,0,0.0084,0.0085,0.0085,0.0083,0.0083,0.0082,0.0082,0.0086,0.0086,0.0087,0,0,0,0,0,0,0,0,0,0,0,0,0,0.0018,0.0019,0.0064,0.0064,0.0064,0.0084,0.0085,0.0085,0.0083,0.0083,0.0082,0.0082,0.0086,0.0086,0.0087,0,0,0,0,0,0,0,0,0,0,0,0,0,0.0039,0.0019,0.0064,0.0065,0.0065,0.0084,0.0085,0.0085,0.0083,0.0083,0.0082,0.0082,0.0086,0.0086,0.0087,0.0103,0,0,0.0089,0.0089,0,0,0,0,0,0,0,0,0.0037,0.004,0.0065,0.0065,0.0065,0.008,0.007,0.009,0.0083,0.0077,0.0082,0.0081,0.0082,0.0083,0.009,0.0103,0.0103,0.0089,0.009,0.009,0.009,0,0,0,0,0,0,0,0.0036,0.004,0.0073,0.0065,0.0065,0.0063,0.0065,0.0074,0.0083,0.0078,0.0077,0.0079,0.0082,0.0089,0.009,0.0103,0.0089,0.009,0.009,0.009,0.0121,0.0122,0,0,0,0,0,0,0.0033,0.0038,0.0072,0.0073,0.0049,0.0064,0.0067,0.0076,0.0083,0.0084,0.0079,0.0079,0.0088,0.0089,0.009,0.0101,0.009,0.0091,0.0091,0.0121,0.0121,0.0122,0,0,0,0,0,0,0.0032,0.0036,0.0071,0.0055,0.0059,0.0065,0.0076,0.0077,0.0081,0.0084,0.0085,0.0081,0.0088,0.0089,0.0105,0.0101,0.0091,0.0091,0.012,0.0121,0.0122,0.0128,0,0,0,0,0,0,0.0031,0.0036,0.0042,0.0055,0.006,0.0086,0.0077,0.0078,0.0082,0.0081,0.0086,0.0086,0.0087,0.0104,0.0105,0.0102,0.0092,0.012,0.0121,0.0121,0.0128,0.0129,0.013,0,0,0,0,0,0.0029,0.0043,0.0042,0.0046,0.0068,0.0087,0.0089,0.0092,0.0083,0.0091,0.0096,0.0086,0.0109,0.0105,0.0107,0.0103,0.012,0.0121,0.0121,0.0127,0.0129,0.013,0,0,0,0,0,0,0.0026,0.0045,0.0044,0.0062,0.0073,0.0086,0.0095,0.0092,0.0103,0.0101,0.0099,0.01,0.011,0.0111,0.0106,0.0115,0.0109,0.0111,0.0113,0.0115,0.0116,0.0113,0.0093,0,0,0,0,0,0.0028,0.0042,0.0057,0.007,0.0079,0.0085,0.0092,0.0093,0.0103,0.0107,0.011,0.0112,0.0117,0.0119,0.0127,0.0136,0.0122,0.0133,0.0135,0.0136,0.0135,0.0112,0.0111,0.0125,0.0125,0.0125,0,0,0.0031,0.004,0.0049,0.0069,0.008,0.0098,0.0089,0.0102,0.0112,0.0106,0.0122,0.012,0.0122,0.0133,0.0136,0.0131,0.0125,0.0137,0.0138,0.0136,0.0113,0.0111,0.011,0.0125,0.0125,0.0125,0,0,0.0045,0.0053,0.0073,0.0086,0.0101,0.0105,0.0108,0.0123,0.0126,0.0142,0.0136,0.0132,0.0148,0.0142,0.0141,0.0155,0.0135,0.0156,0.0158,0.0136,0.0135,0.0133,0.0112,0.0109,0.0154,0.0154,0.0154,0,0.0046,0.0075,0.008,0.0103,0.0117,0.0109,0.0134,0.0137,0.0151,0.0154,0.015,0.0153,0.0149,0.0149,0.0152,0.0155,0.0143,0.0151,0.0137,0.0135,0.0133,0.0112,0.0108,0.0155,0.0155,0.0155,0.0155,0,0.0082,0.0103,0.0117,0.0142,0.0153,0.0175,0.018,0.0185,0.0181,0.0179,0.0181,0.0173,0.0173,0.0165,0.0164,0.0149,0.0145,0.0142,0.0129,0.0132,0.011,0.0105,0.0155,0.0155,0.0155,0.0155,0,0,0.0101,0.0136,0.0144,0.0165,0.018,0.0198,0.0205,0.0217,0.0226,0.0214,0.0223,0.0207,0.0191,0.0189,0.0176,0.015,0.0122,0.0141,0.014,0.0115,0.0074,0.0073,0.0068,0.0116,0.0115,0.0115,0.0064,0,0.0132,0.0183,0.0188,0.0231,0.0262,0.0255,0.0268,0.0268,0.0263,0.0268,0.0233,0.024,0.0204,0.0207,0.0171,0.0144,0.0111,0.0136,0.0081,0.0079,0.0073,0.0063,0.0113,0.006,0.0059,0.0059,0.0058,0,0.0174,0.0203,0.0255,0.0289,0.0303,0.032,0.0339,0.0353,0.034,0.0332,0.0305,0.0286,0.0248,0.0222,0.0145,0.0165,0.0118,0.0084,0.0081,0.0074,0.0069,0.0058,0.005,0.0051,0.0051,0.0052,0.0052,0,0.0206,0.0252,0.0294,0.0311,0.0344,0.0361,0.0377,0.0374,0.0399,0.0376,0.0382,0.0323,0.0314,0.0236,0.0159,0.0155,0.0075,0.0063,0.0011,0.001,0.0023,0.0026,0.0,0.0,0.0,0.0,0.0001,0,0.0247,0.0284,0.0315,0.0349,0.0395,0.0406,0.0456,0.0447,0.0462,0.0489,0.0425,0.0425,0.0319,0.0262,0.0174,0.008,0.0082,0.0007,-0.0005,0.0028,0.0032,0.002,0.0023,-0.0001,-0.0001,-0.0001,-0.0,0,0.0278,0.0301,0.0358,0.0403,0.0417,0.0456,0.0517,0.0555,0.0548,0.058,0.0577,0.0514,0.0431,0.0318,0.02,0.0118,0.002,-0.0015,0.0032,0.0025,-0.0036,-0.0032,-0.0082,-0.0083,-0.0083,-0.0084,-0.0084,0,0.0299,0.0329,0.0398,0.0435,0.0459,0.0521,0.0566,0.0591,0.0631,0.0633,0.0649,0.0585,0.0524,0.0354,0.0225,0.0048,0.002,-0.0038,-0.0051,-0.004,-0.0046,-0.0041,-0.0037,-0.0085,-0.0085,-0.0085,-0.0085,0,0.0329,0.0353,0.0405,0.048,0.0538,0.0602,0.0665,0.0703,0.0733,0.0732,0.0707,0.061,0.0518,0.0367,0.0232,0.0103,-0.0007,-0.0043,-0.0044,-0.0057,-0.0043,-0.0048,-0.0043,-0.0086,-0.0086,-0.0086,-0.0086,0,0.0349,0.0383,0.0449,0.0516,0.0588,0.0651,0.0693,0.0737,0.0774,0.077,0.0766,0.0648,0.0586,0.0397,0.0273,0.0144,0.0104,0.0049,0.0043,0.0043,0.0088,0.0124,0.0119,0,0,0,0,0,0.036,0.0398,0.0472,0.0547,0.0624,0.0656,0.0739,0.0777,0.0813,0.0801,0.0783,0.069,0.0501,0.0424,0.0296,0.0255,0.0077,0.0098,0.001,-0.0095,-0.0093,-0.0062,0,0,0,0,0,0,0.0362,0.0429,0.0472,0.0559,0.0607,0.0685,0.0737,0.0765,0.0763,0.0774,0.0683,0.0635,0.0461,0.0565,0.0281,0.0244,0.0166,0.0014,0.0011,-0.0096,-0.0094,-0.0093,-0.006,0,0,0,0,0]}]]